#timestamp,LO_Frequency,Hit,StdDev 
1507860015.8,286047000.7,N
1507860035.6,286046997.2,N
1507860055.4,286046996.6,N
1507860075.2,286046995.9,N
1507860095.1,286046995.7,N
1507860096.0,286046995.7,N
1507860115.8,286046994.0,Y
1507860135.7,286046996.3,P
1507860155.5,286046997.6,N
1507860175.3,286046998.7,N
1507860195.1,286047002.6,N
1507860215.9,286047003.2,N
1507860235.7,286047004.0,N
1507860255.5,286047004.3,N
1507860275.4,286047002.2,N
1507860295.2,286047000.0,N
1507860315.0,286046995.3,N
1507860315.9,286046995.3,N
1507860335.8,286046999.4,N
1507860355.6,286046996.0,N
1507860375.4,286046995.4,N
1507860395.3,286046997.0,N
1507860415.1,286046998.7,N
1507860416.0,286046998.7,N
1507860435.8,286046999.4,N
1507860455.7,286046998.9,N
1507860475.5,286046997.8,N
1507860495.3,286046997.2,N
1507860515.1,286046997.3,N
1507860535.9,286046998.2,N
1507860555.7,286046998.7,N
1507860575.5,286046999.7,N
1507860595.4,286047002.4,N
1507860615.2,286047002.4,N
1507860635.0,286046998.6,N
1507860635.9,286046998.6,N
1507860655.8,286046998.7,N
1507860675.6,286047002.7,N
1507860695.4,286047001.4,N
1507860715.3,286047002.7,N
1507860735.1,286046998.2,N
1507860736.0,286046998.2,N
1507860755.8,286046999.4,N
1507860775.7,286046997.3,N
1507860795.5,286046999.5,N
1507860815.3,286046996.0,N
1507860835.2,286046992.6,Y
1507860855.9,286046996.0,P
1507860875.7,286046995.4,P
1507860895.6,286046996.9,N
1507860915.4,286046998.2,N
1507860935.2,286046999.4,N
1507860955.1,286046993.9,Y
1507860956.0,286046993.9,P
1507860975.8,286046999.3,N
1507860995.6,286046999.4,N
1507861015.5,286046998.7,N
1507861035.3,286046998.4,N
1507861055.1,286046999.6,N
1507861075.8,286046998.3,N
1507861095.7,286047000.7,N
1507861115.5,286047001.8,N
1507861135.3,286047002.5,N
1507861155.2,286047002.5,N
1507861175.9,286047004.8,N
1507861195.7,286047004.8,N
1507861215.6,286047006.4,N
1507861235.4,286047007.4,N
1507861255.2,286047007.5,N
1507861275.1,286047005.2,N
1507861276.0,286047005.2,N
1507861295.8,286047004.7,N
1507861315.6,286047006.8,N
1507861335.4,286047004.9,N
1507861355.3,286047005.9,N
1507861375.1,286047003.3,N
1507861395.8,286047005.9,N
1507861415.7,286047003.2,N
1507861435.5,286047000.1,N
1507861455.3,286047002.4,N
1507861475.2,286047001.9,N
1507861495.9,286047003.6,N
1507861515.7,286047001.3,N
1507861535.6,286047005.4,N
1507861555.4,286047007.3,N
1507861575.2,286047005.3,N
1507861595.1,286047005.9,N
1507861596.0,286047005.9,N
1507861615.8,286047005.9,N
1507861635.6,286047005.5,N
1507861655.5,286047005.6,N
1507861675.3,286047003.4,N
1507861695.1,286047003.8,N
1507861715.8,286047005.0,N
1507861735.7,286047001.7,N
1507861755.5,286046999.7,N
1507861775.3,286047003.2,N
1507861795.2,286047002.8,N
1507861815.9,286047002.5,N
1507861835.7,286047000.2,N
1507861855.6,286047000.2,N
1507861875.4,286047006.0,N
1507861895.2,286047003.5,N
1507861915.1,286047001.6,N
1507861916.0,286047001.6,N
1507861935.8,286047000.4,N
1507861955.6,286047002.0,N
1507861975.5,286047001.4,N
1507861995.3,286047003.0,N
1507862015.1,286047005.3,N
1507862035.8,286047004.7,N
1507862055.7,286047003.3,N
1507862075.5,286047005.1,N
1507862095.3,286047006.0,N
1507862115.2,286047004.3,N
1507862135.9,286046999.7,N
1507862155.7,286047001.8,N
1507862175.6,286047004.1,N
1507862195.4,286047001.6,N
1507862215.2,286046998.1,N
1507862235.1,286046999.0,N
1507862236.0,286046999.0,N
1507862255.8,286047002.8,N
1507862275.6,286046998.8,N
1507862295.5,286046999.0,N
1507862315.3,286046998.9,N
1507862335.1,286047004.1,N
1507862355.9,286047000.9,N
1507862375.7,286046999.9,N
1507862395.5,286047001.8,N
1507862415.3,286047000.2,N
1507862435.2,286047000.9,N
1507862455.0,286046998.3,N
1507862455.9,286046998.3,N
1507862475.7,286047000.2,N
1507862495.6,286047000.3,N
1507862515.4,286047005.3,N
1507862535.2,286047005.2,N
1507862555.1,286047006.6,N
1507862556.0,286047006.6,N
1507862575.8,286047006.0,N
1507862595.6,286047001.6,N
1507862615.5,286047001.5,N
1507862635.3,286047002.1,N
1507862655.1,286047002.4,N
1507862675.9,286047000.2,N
1507862695.7,286047002.4,N
1507862715.5,286047002.7,N
1507862735.4,286047004.2,N
1507862755.2,286046998.3,N
1507862775.0,286046997.0,N
1507862775.9,286046997.0,N
1507862795.7,286046994.6,N
1507862815.6,286046990.7,Y
1507862835.4,286046988.8,P
1507862855.2,286046991.5,N
1507862875.1,286046989.3,N
1507862876.0,286046989.3,N
1507862895.8,286046987.6,N
1507862915.6,286046987.7,N
1507862935.5,286046985.8,Y
1507862955.3,286046994.0,P
1507862975.1,286046994.7,P
1507862995.9,286046992.5,P
1507863015.7,286046992.9,Y
1507863035.5,286046999.0,P
1507863055.4,286046997.6,N
1507863075.2,286047000.9,N
1507863095.0,286046998.8,N
1507863095.9,286046998.8,N
1507863115.8,286046999.9,N
1507863135.6,286047000.0,N
1507863155.4,286046998.4,N
1507863175.3,286046998.5,N
1507863195.1,286047001.2,N
1507863196.0,286047001.2,N
1507863215.8,286047002.0,N
1507863235.7,286047002.5,N
1507863255.5,286047004.2,N
1507863275.3,286047005.1,N
1507863295.2,286047002.9,N
1507863315.9,286047005.3,N
1507863335.7,286047004.9,N
1507863355.5,286047007.6,N
1507863375.4,286047008.3,N
1507863395.2,286047008.7,N
1507863415.0,286047010.7,N
1507863415.9,286047010.7,N
1507863435.8,286047010.7,N
1507863455.6,286047012.3,N
1507863475.4,286047012.7,N
1507863495.3,286047017.2,Y
1507863515.1,286047015.3,P
1507863535.8,286047015.6,N
1507863555.7,286047015.0,N
1507863575.5,286047017.2,Y
1507863595.3,286047002.2,P
